Flag for Albania Weather past 2 weeks in Tirana, Albania

Now
45 °F

Clear.


Feels Like: 41 °F
Forecast: 39 / 64 °F
Wind: 6 mph from South

Location: Tirana Airport

Current Time: Mar 30, 2015 at 12:50:59 AM

Latest Report: Mar 30, 2015 at 12:20 AM


Visibility: 10 mi

Pressure: 29.86 "Hg

Humidity: 87%

Dew point: 41 °F

Location of TiranaLocation

Historic Weather in Tirana — Graph

°F

Tirana temperature yesterday

Maximum temperature yesterday: 64 °F (at 12:50 PM)
Minimum temperature yesterday: 43 °F (at 6:20 AM)
Average temperature yesterday: 53 °F

Past Weeks' High & Low Weather Summary

 TemperatureHumidityPressure
High73 °F (Mar 26, 2:20 PM)94% (Mar 23, 7:50 AM)30.42 "Hg (Mar 23, 7:50 AM)
Low28 °F (Mar 21, 5:50 AM)12% (Mar 21, 1:20 PM)29.56 "Hg (Mar 27, 11:20 AM)
Average52 °F63%30.02 "Hg
* Reported Mar 14 10:20 PM — Mar 29 11:50 PM, Tirana, Weather by CustomWeather, © 2015

Note: Actual official high and low records may vary slightly from our data, if they occured in-between our weather recording intervals... More about our weather records

Advertising

Tirana weather history for previous 24 hours

 ConditionsComfort  
Time TempWeatherWind HumidityBarometerVisibility
11:50 PM
Sun, Mar 29
45 °FClear.3 mph87%29.86 "Hg10 mi
11:20 PM46 °FClear.6 mph82%29.86 "Hg10 mi
10:50 PM46 °FClear.5 mph82%29.89 "Hg10 mi
10:20 PM46 °FClear.3 mph82%29.89 "Hg10 mi
9:50 PM46 °FClear.3 mph82%29.89 "Hg10 mi
9:20 PM50 °FClear.3 mph76%29.89 "Hg10 mi
8:50 PM52 °FClear.No wind67%29.86 "Hg10 mi
8:20 PM52 °FClear.2 mph67%29.86 "Hg10 mi
7:50 PM54 °FSunny.3 mph63%29.86 "Hg10 mi
7:20 PM54 °FSunny.3 mph63%29.83 "Hg10 mi
6:50 PM55 °FSunny.6 mph59%29.83 "Hg10 mi
6:20 PM57 °FSunny.9 mph55%29.83 "Hg10 mi
5:50 PM59 °FSunny.10 mph45%29.80 "Hg10 mi
5:20 PM61 °FSunny.10 mph42%29.80 "Hg10 mi
4:50 PM63 °FPassing clouds.8 mph39%29.80 "HgN/A
4:20 PM63 °FSunny.10 mph39%29.80 "Hg10 mi
3:50 PM63 °FPassing clouds.10 mph42%29.80 "HgN/A
3:20 PM63 °FPassing clouds.10 mph39%29.80 "HgN/A
2:50 PM64 °FPassing clouds.8 mph34%29.80 "HgN/A
2:20 PM63 °FPassing clouds.8 mph39%29.80 "HgN/A
1:50 PM64 °FPassing clouds.10 mph37%29.80 "HgN/A
1:20 PM64 °FPassing clouds.9 mph37%29.80 "HgN/A
12:50 PM64 °FPassing clouds.7 mph34%29.80 "HgN/A
12:20 PM63 °FPassing clouds.9 mph37%29.80 "HgN/A
11:50 AM63 °FPassing clouds.6 mph39%29.80 "HgN/A
11:20 AM61 °FPassing clouds.3 mph39%29.80 "HgN/A
10:50 AM61 °FPassing clouds.3 mph39%29.83 "HgN/A
10:20 AM57 °FPassing clouds.5 mph48%29.83 "HgN/A
9:50 AM55 °FSunny.2 mph51%29.83 "Hg10 mi
9:20 AM55 °FSunny.No wind51%29.83 "Hg10 mi
8:50 AM52 °FSunny.No wind62%29.83 "Hg10 mi
8:20 AM48 °FSunny.No wind71%29.80 "Hg10 mi
7:50 AM46 °FSunny.2 mph76%29.80 "Hg10 mi
7:20 AM43 °FClear.3 mph87%29.80 "Hg10 mi
6:50 AM43 °FPassing clouds.2 mph81%29.80 "HgN/A
6:20 AM43 °FPassing clouds.3 mph81%29.80 "HgN/A
5:20 AM45 °FPassing clouds.3 mph81%29.77 "HgN/A
4:50 AM45 °FPassing clouds.2 mph81%29.77 "HgN/A
4:20 AM46 °FPassing clouds.3 mph76%29.77 "HgN/A
3:50 AM46 °FPartly cloudy.3 mph76%29.77 "HgN/A
3:20 AM46 °FPassing clouds.2 mph76%29.77 "HgN/A
1:50 AM48 °FPassing clouds.2 mph71%29.77 "HgN/A
1:20 AM48 °FPassing clouds.2 mph66%29.77 "HgN/A
12:50 AM46 °FPassing clouds.No wind76%29.77 "HgN/A
12:20 AM46 °FPassing clouds.No wind76%29.77 "HgN/A
Weather by CustomWeather, © 2015

See weather overviewHow to use our weather pages